| time (UTC) | temp C | wind direction | speed KPH | gust KPH | rain 1hr cm | rain 24hr cm | rain mn cm | humidity % | barometer mb |
| 20260903085011 | 19 | 104 | 0.0 | 3.2 | 0.00 | 0.05 | 0.00 | 93 | 1014.2 |
| 20260903084538 | 20 | 5 | 0.0 | 3.2 | 0.00 | 0.05 | 0.00 | 93 | 1014.1 |
| 20260903084012 | 20 | 360 | 0.0 | 3.2 | 0.00 | 0.05 | 0.00 | 93 | 1014.1 |
| 20260903083514 | 20 | 217 | 0.0 | 3.2 | 0.00 | 0.05 | 0.00 | 93 | 1014.0 |
| 20260903083025 | 20 | 286 | 0.0 | 0.0 | 0.00 | 0.05 | 0.00 | 93 | 1014.0 |
| 20260903082515 | 20 | 286 | 0.0 | 0.0 | 0.00 | 0.05 | 0.00 | 93 | 1013.9 |
| 20260903082015 | 20 | 286 | 0.0 | 3.2 | 0.00 | 0.05 | 0.00 | 93 | 1013.7 |
| 20260903081529 | 20 | 286 | 0.0 | 3.2 | 0.00 | 0.05 | 0.00 | 92 | 1013.7 |
| 20260903081018 | 20 | 286 | 0.0 | 3.2 | 0.00 | 0.05 | 0.00 | 92 | 1013.7 |
| 20260903080519 | 20 | 294 | 0.0 | 4.8 | 0.00 | 0.05 | 0.00 | 93 | 1013.7 |
| 20260903080033 | 20 | 5 | 1.6 | 4.8 | 0.00 | 0.05 | 0.00 | 92 | 1013.6 |
| 20260903075518 | 20 | 230 | 0.0 | 0.0 | 0.00 | 0.05 | 0.00 | 92 | 1013.7 |
| 20260903075017 | 20 | 230 | 0.0 | 0.0 | 0.00 | 0.05 | 0.00 | 92 | 1013.7 |
| 20260903074532 | 20 | 230 | 0.0 | 0.0 | 0.00 | 0.05 | 0.00 | 92 | 1013.8 |
| 20260903074011 | 20 | 230 | 0.0 | 0.0 | 0.00 | 0.05 | 0.00 | 92 | 1013.8 |
| 20260903073512 | 20 | 230 | 0.0 | 3.2 | 0.00 | 0.05 | 0.00 | 92 | 1013.9 |
| 20260903073021 | 20 | 230 | 0.0 | 3.2 | 0.00 | 0.05 | 0.00 | 92 | 1014.0 |
| 20260903072513 | 20 | 230 | 0.0 | 3.2 | 0.00 | 0.05 | 0.00 | 92 | 1014.1 |
| 20260903072014 | 20 | 233 | 0.0 | 3.2 | 0.00 | 0.05 | 0.00 | 92 | 1014.1 |
| 20260903071528 | 20 | 224 | 0.0 | 3.2 | 0.00 | 0.05 | 0.00 | 92 | 1014.2 |
| 20260903071014 | 20 | 263 | 0.0 | 3.2 | 0.00 | 0.05 | 0.00 | 92 | 1014.2 |
| 20260903070519 | 20 | 269 | 0.0 | 3.2 | 0.00 | 0.05 | 0.00 | 92 | 1014.3 |
| 20260903070030 | 20 | 269 | 0.0 | 1.6 | 0.00 | 0.05 | 0.00 | 93 | 1014.2 |
| 20260903065518 | 20 | 276 | 0.0 | 1.6 | 0.00 | 0.05 | 0.00 | 92 | 1014.1 |
| 20260903065017 | 20 | 303 | 0.0 | 0.0 | 0.00 | 0.05 | 0.00 | 92 | 1013.9 |
| 20260903064537 | 20 | 303 | 0.0 | 3.2 | 0.00 | 0.05 | 0.00 | 92 | 1013.8 |
| 20260903064020 | 20 | 281 | 0.0 | 3.2 | 0.00 | 0.05 | 0.00 | 92 | 1013.9 |
| 20260903063519 | 20 | 283 | 0.0 | 3.2 | 0.00 | 0.05 | 0.00 | 92 | 1014.0 |
| 20260903063019 | 20 | 74 | 0.0 | 1.6 | 0.00 | 0.05 | 0.00 | 92 | 1014.0 |
| 20260903062512 | 20 | 74 | 0.0 | 0.0 | 0.00 | 0.05 | 0.00 | 91 | 1013.9 |
| 20260903062012 | 20 | 74 | 0.0 | 0.0 | 0.00 | 0.05 | 0.00 | 91 | 1013.8 |
| 20260903061529 | 20 | 74 | 0.0 | 1.6 | 0.00 | 0.05 | 0.00 | 91 | 1013.8 |
| 20260903061015 | 21 | 74 | 0.0 | 3.2 | 0.00 | 0.05 | 0.00 | 91 | 1014.0 |
| 20260903060515 | 21 | 141 | 0.0 | 3.2 | 0.00 | 0.05 | 0.00 | 90 | 1014.2 |
| 20260903060031 | 21 | 175 | 0.0 | 3.2 | 0.00 | 0.05 | 0.00 | 90 | 1014.2 |
| 20260903055518 | 21 | 175 | 0.0 | 3.2 | 0.00 | 0.05 | 0.00 | 89 | 1014.3 |
| 20260903055015 | 21 | 204 | 0.0 | 1.6 | 0.00 | 0.05 | 0.00 | 89 | 1014.3 |
| 20260903054533 | 21 | 203 | 0.0 | 3.2 | 0.00 | 0.05 | 0.00 | 89 | 1014.4 |
| 20260903054004 | 21 | 204 | 0.0 | 3.2 | 0.00 | 0.05 | 0.00 | 88 | 1014.6 |
| 20260903053504 | 22 | 186 | 0.0 | 3.2 | 0.00 | 0.05 | 0.00 | 88 | 1014.5 |
| 20260903053007 | 22 | 182 | 0.0 | 4.8 | 0.00 | 0.05 | 0.00 | 88 | 1014.7 |
| 20260903052506 | 22 | 182 | 1.6 | 6.4 | 0.00 | 0.05 | 0.00 | 88 | 1014.7 |
| 20260903052006 | 22 | 182 | 1.6 | 6.4 | 0.00 | 0.05 | 0.00 | 89 | 1014.6 |
| 20260903051508 | 21 | 202 | 1.6 | 6.4 | 0.00 | 0.05 | 0.00 | 88 | 1014.7 |
| 20260903051005 | 22 | 201 | 0.0 | 6.4 | 0.00 | 0.05 | 0.00 | 88 | 1014.7 |
| 20260903050505 | 22 | 186 | 1.6 | 4.8 | 0.00 | 0.05 | 0.00 | 88 | 1014.5 |
| 20260903050019 | 21 | 225 | 1.6 | 6.4 | 0.00 | 0.05 | 0.00 | 88 | 1014.6 |
| 20260903045503 | 21 | 179 | 3.2 | 6.4 | 0.00 | 0.05 | 0.00 | 88 | 1014.4 |
| 20260903045003 | 21 | 137 | 1.6 | 6.4 | 0.00 | 0.05 | 0.00 | 89 | 1014.5 |
| 20260903044503 | 21 | 176 | 1.6 | 4.8 | 0.00 | 0.05 | 0.00 | 89 | 1014.5 |
| 20260903044003 | 21 | 183 | 0.0 | 1.6 | 0.00 | 0.05 | 0.00 | 89 | 1014.7 |
| 20260903043504 | 21 | 183 | 0.0 | 3.2 | 0.00 | 0.05 | 0.00 | 89 | 1014.7 |
| 20260903043007 | 21 | 192 | 1.6 | 3.2 | 0.00 | 0.05 | 0.00 | 89 | 1014.7 |
| 20260903042504 | 21 | 196 | 0.0 | 3.2 | 0.00 | 0.05 | 0.00 | 88 | 1014.6 |
| 20260903042004 | 22 | 186 | 0.0 | 4.8 | 0.00 | 0.05 | 0.00 | 88 | 1014.5 |
| 20260903041517 | 22 | 177 | 0.0 | 8.0 | 0.00 | 0.05 | 0.00 | 88 | 1014.3 |
| 20260903041007 | 21 | 185 | 3.2 | 8.0 | 0.00 | 0.05 | 0.00 | 88 | 1014.4 |
| 20260903040505 | 21 | 173 | 3.2 | 8.0 | 0.00 | 0.05 | 0.00 | 89 | 1014.6 |
| 20260903040009 | 21 | 174 | 3.2 | 12.9 | 0.00 | 0.05 | 0.00 | 90 | 1014.9 |
| 20260903035503 | 21 | 213 | 6.4 | 12.9 | 0.00 | 0.05 | 0.05 | 91 | 1015.1 |
| 20260903035005 | 21 | 202 | 1.6 | 3.2 | 0.00 | 0.05 | 0.05 | 90 | 1014.3 |
| 20260903034509 | 21 | 58 | 0.0 | 3.2 | 0.00 | 0.05 | 0.05 | 90 | 1013.8 |
| 20260903034003 | 21 | 110 | 0.0 | 3.2 | 0.00 | 0.05 | 0.05 | 90 | 1013.5 |
| 20260903033505 | 21 | 141 | 0.0 | 3.2 | 0.00 | 0.05 | 0.05 | 90 | 1013.8 |
| 20260903033009 | 21 | 142 | 1.6 | 4.8 | 0.00 | 0.05 | 0.05 | 90 | 1013.8 |
| 20260903032509 | 21 | 134 | 1.6 | 8.0 | 0.00 | 0.05 | 0.05 | 90 | 1013.7 |
| 20260903032008 | 21 | 158 | 1.6 | 6.4 | 0.00 | 0.05 | 0.05 | 91 | 1014.2 |
| 20260903031508 | 21 | 162 | 1.6 | 4.8 | 0.00 | 0.05 | 0.05 | 91 | 1014.4 |
| 20260903031007 | 21 | 154 | 1.6 | 3.2 | 0.00 | 0.05 | 0.05 | 91 | 1013.7 |
| 20260903030510 | 21 | 144 | 0.0 | 3.2 | 0.00 | 0.05 | 0.05 | 91 | 1013.4 |
| 20260903030012 | 21 | 144 | 0.0 | 3.2 | 0.00 | 0.05 | 0.05 | 91 | 1013.5 |
| 20260903025503 | 21 | 143 | 0.0 | 3.2 | 0.00 | 0.05 | 0.05 | 91 | 1013.6 |
| 20260903025006 | 21 | 132 | 0.0 | 3.2 | 0.00 | 0.05 | 0.05 | 91 | 1013.4 |
| 20260903024508 | 21 | 148 | 0.0 | 3.2 | 0.00 | 0.05 | 0.05 | 91 | 1013.2 |
| 20260903024009 | 21 | 150 | 0.0 | 1.6 | 0.00 | 0.05 | 0.05 | 91 | 1013.2 |
| 20260903023508 | 21 | 94 | 0.0 | 1.6 | 0.00 | 0.05 | 0.05 | 91 | 1013.2 |
| 20260903023014 | 21 | 109 | 0.0 | 3.2 | 0.00 | 0.05 | 0.05 | 91 | 1013.6 |
| 20260903022508 | 21 | 87 | 0.0 | 3.2 | 0.00 | 0.05 | 0.05 | 91 | 1014.0 |
| 20260903022005 | 21 | 149 | 1.6 | 3.2 | 0.00 | 0.05 | 0.05 | 91 | 1014.1 |
| 20260903021517 | 21 | 144 | 1.6 | 3.2 | 0.00 | 0.05 | 0.05 | 91 | 1014.3 |
| 20260903021007 | 21 | 53 | 0.0 | 3.2 | 0.00 | 0.05 | 0.05 | 91 | 1014.4 |
| 20260903020508 | 22 | 182 | 0.0 | 3.2 | 0.00 | 0.05 | 0.05 | 91 | 1014.4 |
| 20260903020037 | 22 | 144 | 0.0 | 3.2 | 0.00 | 0.05 | 0.05 | 90 | 1014.3 |
| 20260903015506 | 22 | 144 | 0.0 | 3.2 | 0.03 | 0.05 | 0.05 | 90 | 1014.2 |
| 20260903015006 | 22 | 144 | 0.0 | 3.2 | 0.05 | 0.05 | 0.05 | 90 | 1014.2 |
| 20260903014513 | 22 | 352 | 0.0 | 3.2 | 0.05 | 0.05 | 0.05 | 90 | 1014.2 |
| 20260903014008 | 22 | 346 | 0.0 | 3.2 | 0.05 | 0.05 | 0.05 | 90 | 1014.3 |
| 20260903013504 | 22 | 336 | 0.0 | 1.6 | 0.05 | 0.05 | 0.05 | 90 | 1014.1 |
| 20260903013011 | 22 | 344 | 0.0 | 1.6 | 0.05 | 0.05 | 0.05 | 90 | 1014.1 |
| 20260903012508 | 22 | 340 | 0.0 | 3.2 | 0.05 | 0.05 | 0.05 | 90 | 1014.1 |
| 20260903012007 | 22 | 303 | 0.0 | 3.2 | 0.05 | 0.05 | 0.05 | 89 | 1014.1 |
| 20260903011511 | 22 | 303 | 0.0 | 3.2 | 0.05 | 0.05 | 0.05 | 89 | 1014.5 |
| 20260903011008 | 22 | 327 | 0.0 | 4.8 | 0.05 | 0.05 | 0.05 | 88 | 1014.4 |
| 20260903010511 | 22 | 21 | 1.6 | 4.8 | 0.05 | 0.05 | 0.05 | 88 | 1013.9 |
| 20260903010011 | 22 | 340 | 0.0 | 6.4 | 0.05 | 0.05 | 0.05 | 87 | 1014.0 |
| 20260903005507 | 22 | 16 | 3.2 | 8.0 | 0.03 | 0.03 | 0.03 | 86 | 1013.9 |
| 20260903005013 | 23 | 5 | 3.2 | 8.0 | 0.00 | 0.00 | 0.00 | 86 | 1013.7 |
| 20260903004513 | 23 | 30 | 1.6 | 8.0 | 0.00 | 0.00 | 0.00 | 85 | 1013.7 |
| 20260903004008 | 23 | 17 | 3.2 | 4.8 | 0.00 | 0.00 | 0.00 | 84 | 1013.8 |
| 20260903003508 | 23 | 55 | 0.0 | 3.2 | 0.00 | 0.00 | 0.00 | 85 | 1013.5 |
| 20260903003012 | 23 | 36 | 0.0 | 3.2 | 0.00 | 0.00 | 0.00 | 85 | 1013.5 |
| 20260903002507 | 23 | 82 | 0.0 | 0.0 | 0.00 | 0.00 | 0.00 | 83 | 1013.3 |
| 20260903002012 | 23 | 101 | 0.0 | 0.0 | 0.00 | 0.00 | 0.00 | 82 | 1013.0 |
| 20260903001512 | 23 | 84 | 0.0 | 0.0 | 0.00 | 0.00 | 0.00 | 81 | 1012.9 |
| 20260903001008 | 23 | 78 | 0.0 | 0.0 | 0.00 | 0.00 | 0.00 | 81 | 1012.8 |
| 20260903000508 | 24 | 78 | 0.0 | 0.0 | 0.00 | 0.00 | 0.00 | 80 | 1012.7 |
| 20260903000012 | 24 | 78 | 0.0 | 0.0 | 0.00 | 0.00 | 0.00 | 79 | 1012.8 |
| 20260902235508 | 24 | 78 | 0.0 | 3.2 | 0.00 | 0.00 | 0.00 | 79 | 1012.8 |
| 20260902235008 | 24 | 125 | 1.6 | 3.2 | 0.00 | 0.00 | 0.00 | 78 | 1012.9 |
| 20260902234513 | 24 | 152 | 0.0 | 3.2 | 0.00 | 0.00 | 0.00 | 78 | 1012.9 |
| 20260902234013 | 25 | 153 | 0.0 | 3.2 | 0.00 | 0.00 | 0.00 | 77 | 1012.8 |
| 20260902233508 | 25 | 150 | 0.0 | 3.2 | 0.00 | 0.00 | 0.00 | 77 | 1012.9 |
| 20260902233016 | 25 | 36 | 0.0 | 6.4 | 0.00 | 0.00 | 0.00 | 77 | 1013.2 |
| 20260902232514 | 25 | 36 | 1.6 | 8.0 | 0.00 | 0.00 | 0.00 | 75 | 1013.3 |
| 20260902232011 | 25 | 350 | 0.0 | 12.9 | 0.00 | 0.00 | 0.00 | 73 | 1013.5 |
| 20260902231511 | 25 | 360 | 4.8 | 16.1 | 0.00 | 0.00 | 0.00 | 73 | 1013.8 |
| 20260902231009 | 26 | 9 | 1.6 | 16.1 | 0.00 | 0.00 | 0.00 | 73 | 1014.1 |
| 20260902230509 | 26 | 9 | 8.0 | 12.9 | 0.00 | 0.00 | 0.00 | 72 | 1014.7 |
| 20260902230016 | 26 | 27 | 4.8 | 11.3 | 0.00 | 0.00 | 0.00 | 71 | 1013.3 |
| 20260902225512 | 27 | 17 | 6.4 | 11.3 | 0.00 | 0.00 | 0.00 | 70 | 1013.3 |
| 20260902225008 | 27 | 18 | 4.8 | 11.3 | 0.00 | 0.00 | 0.00 | 67 | 1013.4 |
| 20260902224516 | 28 | 53 | 4.8 | 19.3 | 0.00 | 0.00 | 0.00 | 64 | 1013.0 |
| 20260902224012 | 30 | 5 | 9.7 | 19.3 | 0.00 | 0.00 | 0.00 | 62 | 1013.3 |
| 20260902223511 | 30 | 321 | 1.6 | 6.4 | 0.00 | 0.00 | 0.00 | 60 | 1012.9 |
| 20260902223016 | 30 | 311 | 3.2 | 6.4 | 0.00 | 0.00 | 0.00 | 60 | 1012.7 |
| 20260902222511 | 30 | 273 | 3.2 | 6.4 | 0.00 | 0.00 | 0.00 | 58 | 1012.6 |
| 20260902222011 | 30 | 229 | 0.0 | 6.4 | 0.00 | 0.00 | 0.00 | 59 | 1012.4 |
| 20260902221532 | 31 | 260 | 0.0 | 11.3 | 0.00 | 0.00 | 0.00 | 58 | 1012.4 |
| 20260902221015 | 31 | 263 | 4.8 | 11.3 | 0.00 | 0.00 | 0.00 | 57 | 1012.4 |
| 20260902220510 | 31 | 263 | 4.8 | 11.3 | 0.00 | 0.00 | 0.00 | 58 | 1012.4 |
| 20260902220032 | 31 | 225 | 4.8 | 11.3 | 0.00 | 0.00 | 0.00 | 56 | 1012.3 |
| 20260902215513 | 32 | 256 | 4.8 | 14.5 | 0.00 | 0.00 | 0.00 | 55 | 1012.3 |
| 20260902215011 | 32 | 255 | 4.8 | 17.7 | 0.00 | 0.00 | 0.00 | 53 | 1012.4 |
| 20260902214515 | 32 | 271 | 9.7 | 19.3 | 0.00 | 0.00 | 0.00 | 54 | 1012.5 |
| 20260902214009 | 32 | 282 | 6.4 | 19.3 | 0.00 | 0.00 | 0.00 | 53 | 1012.6 |
| 20260902213511 | 32 | 273 | 9.7 | 16.1 | 0.00 | 0.00 | 0.00 | 52 | 1012.7 |
| 20260902213020 | 32 | 244 | 4.8 | 14.5 | 0.00 | 0.00 | 0.00 | 53 | 1012.8 |
| 20260902212512 | 32 | 248 | 6.4 | 16.1 | 0.00 | 0.00 | 0.00 | 54 | 1012.8 |
| 20260902212011 | 32 | 265 | 8.0 | 16.1 | 0.00 | 0.00 | 0.00 | 56 | 1012.7 |
| 20260902211517 | 32 | 274 | 8.0 | 17.7 | 0.00 | 0.00 | 0.00 | 54 | 1012.6 |
| 20260902211011 | 32 | 267 | 4.8 | 17.7 | 0.00 | 0.00 | 0.00 | 54 | 1012.5 |
| 20260902210513 | 32 | 296 | 9.7 | 25.7 | 0.00 | 0.00 | 0.00 | 53 | 1012.4 |
| 20260902210013 | 32 | 226 | 14.5 | 25.7 | 0.00 | 0.00 | 0.00 | 50 | 1012.3 |
| 20260902205510 | 33 | 317 | 6.4 | 16.1 | 0.00 | 0.00 | 0.00 | 51 | 1012.3 |
| 20260902205011 | 33 | 263 | 6.4 | 16.1 | 0.00 | 0.00 | 0.00 | 52 | 1012.3 |
| 20260902204518 | 33 | 246 | 4.8 | 16.1 | 0.00 | 0.00 | 0.00 | 52 | 1012.4 |
| 20260902204012 | 33 | 225 | 3.2 | 11.3 | 0.00 | 0.00 | 0.00 | 51 | 1012.6 |
| 20260902203513 | 33 | 260 | 4.8 | 12.9 | 0.00 | 0.00 | 0.00 | 54 | 1012.7 |
| 20260902203020 | 33 | 260 | 4.8 | 12.9 | 0.00 | 0.00 | 0.00 | 55 | 1012.9 |
| 20260902202513 | 33 | 256 | 1.6 | 20.9 | 0.00 | 0.00 | 0.00 | 56 | 1012.9 |
| 20260902202013 | 33 | 277 | 6.4 | 20.9 | 0.00 | 0.00 | 0.00 | 52 | 1013.0 |
| 20260902201518 | 33 | 276 | 9.7 | 20.9 | 0.00 | 0.00 | 0.00 | 51 | 1012.9 |
| 20260902201016 | 33 | 273 | 4.8 | 14.5 | 0.00 | 0.00 | 0.00 | 50 | 1013.0 |
| 20260902200513 | 33 | 265 | 4.8 | 14.5 | 0.00 | 0.00 | 0.00 | 53 | 1013.0 |
| 20260902200020 | 33 | 263 | 8.0 | 17.7 | 0.00 | 0.00 | 0.00 | 51 | 1013.1 |
| 20260902195514 | 33 | 205 | 8.0 | 17.7 | 0.00 | 0.00 | 0.00 | 50 | 1013.1 |
| 20260902195008 | 33 | 271 | 6.4 | 17.7 | 0.00 | 0.00 | 0.00 | 50 | 1013.2 |
| 20260902194526 | 33 | 243 | 3.2 | 17.7 | 0.00 | 0.00 | 0.00 | 52 | 1013.2 |
| 20260902194012 | 33 | 265 | 4.8 | 17.7 | 0.00 | 0.00 | 0.00 | 52 | 1013.4 |
| 20260902193512 | 33 | 268 | 6.4 | 14.5 | 0.00 | 0.00 | 0.00 | 54 | 1013.4 |
| 20260902193021 | 33 | 196 | 3.2 | 17.7 | 0.00 | 0.00 | 0.00 | 56 | 1013.5 |
| 20260902192513 | 33 | 255 | 4.8 | 17.7 | 0.00 | 0.00 | 0.00 | 53 | 1013.5 |
| 20260902192011 | 33 | 252 | 8.0 | 16.1 | 0.00 | 0.00 | 0.00 | 53 | 1013.7 |
| 20260902191522 | 33 | 263 | 6.4 | 16.1 | 0.00 | 0.00 | 0.00 | 53 | 1013.8 |
| 20260902191013 | 33 | 272 | 8.0 | 14.5 | 0.00 | 0.00 | 0.00 | 52 | 1013.8 |
| 20260902190514 | 33 | 262 | 4.8 | 14.5 | 0.00 | 0.00 | 0.00 | 57 | 1013.8 |
| 20260902190021 | 33 | 266 | 3.2 | 12.9 | 0.00 | 0.00 | 0.00 | 55 | 1013.8 |
| 20260902185508 | 33 | 257 | 3.2 | 16.1 | 0.00 | 0.00 | 0.00 | 53 | 1013.8 |
| 20260902185009 | 33 | 216 | 4.8 | 16.1 | 0.00 | 0.00 | 0.00 | 54 | 1013.7 |
| 20260902184521 | 33 | 232 | 3.2 | 14.5 | 0.00 | 0.00 | 0.00 | 55 | 1013.6 |
| 20260902184013 | 33 | 232 | 4.8 | 16.1 | 0.00 | 0.00 | 0.00 | 56 | 1013.7 |
| 20260902183514 | 33 | 290 | 6.4 | 16.1 | 0.00 | 0.00 | 0.00 | 56 | 1013.6 |
| 20260902183025 | 33 | 236 | 6.4 | 14.5 | 0.00 | 0.00 | 0.00 | 57 | 1013.6 |
| 20260902182503 | 33 | 261 | 4.8 | 11.3 | 0.00 | 0.00 | 0.00 | 60 | 1013.7 |
| 20260902182004 | 33 | 275 | 3.2 | 12.9 | 0.00 | 0.00 | 0.00 | 63 | 1013.6 |
| 20260902181504 | 33 | 216 | 4.8 | 11.3 | 0.00 | 0.00 | 0.00 | 60 | 1013.7 |
| 20260902181011 | 33 | 178 | 4.8 | 11.3 | 0.00 | 0.00 | 0.00 | 63 | 1013.8 |
| 20260902180503 | 33 | 257 | 1.6 | 11.3 | 0.00 | 0.00 | 0.00 | 61 | 1014.0 |
| 20260902180008 | 32 | 263 | 3.2 | 8.0 | 0.00 | 0.00 | 0.00 | 62 | 1014.1 |
| 20260902175504 | 32 | 184 | 1.6 | 8.0 | 0.00 | 0.00 | 0.00 | 63 | 1014.2 |
| 20260902175007 | 32 | 294 | 1.6 | 11.3 | 0.00 | 0.00 | 0.00 | 62 | 1014.4 |
| 20260902174512 | 32 | 263 | 3.2 | 11.3 | 0.00 | 0.00 | 0.00 | 62 | 1014.4 |
| 20260902174012 | 32 | 257 | 3.2 | 9.7 | 0.00 | 0.00 | 0.00 | 62 | 1014.5 |
| 20260902173514 | 32 | 261 | 1.6 | 9.7 | 0.00 | 0.00 | 0.00 | 64 | 1014.6 |
| 20260902173021 | 32 | 269 | 3.2 | 11.3 | 0.00 | 0.00 | 0.00 | 63 | 1014.7 |
| 20260902172513 | 32 | 247 | 4.8 | 11.3 | 0.00 | 0.00 | 0.00 | 64 | 1014.9 |
| 20260902172016 | 32 | 297 | 3.2 | 11.3 | 0.00 | 0.00 | 0.00 | 64 | 1015.0 |
| 20260902171504 | 32 | 291 | 6.4 | 11.3 | 0.00 | 0.00 | 0.00 | 64 | 1015.1 |
| 20260902171006 | 32 | 275 | 4.8 | 9.7 | 0.00 | 0.00 | 0.00 | 61 | 1015.1 |
| 20260902170504 | 32 | 304 | 3.2 | 11.3 | 0.00 | 0.00 | 0.00 | 63 | 1015.1 |
| 20260902170004 | 32 | 309 | 4.8 | 14.5 | 0.00 | 0.00 | 0.00 | 63 | 1015.2 |
| 20260902165507 | 31 | 299 | 6.4 | 14.5 | 0.00 | 0.00 | 0.00 | 64 | 1015.3 |
| 20260902165007 | 31 | 290 | 4.8 | 12.9 | 0.00 | 0.00 | 0.00 | 66 | 1015.4 |
| 20260902164510 | 31 | 336 | 3.2 | 12.9 | 0.00 | 0.00 | 0.00 | 66 | 1015.4 |
| 20260902164010 | 31 | 311 | 4.8 | 12.9 | 0.00 | 0.00 | 0.00 | 65 | 1015.4 |
| 20260902163509 | 31 | 268 | 3.2 | 4.8 | 0.00 | 0.00 | 0.00 | 68 | 1015.4 |
| 20260902163017 | 31 | 268 | 0.0 | 4.8 | 0.00 | 0.00 | 0.00 | 68 | 1015.4 |
| 20260902162517 | 31 | 171 | 1.6 | 4.8 | 0.00 | 0.00 | 0.00 | 69 | 1015.5 |
| 20260902162013 | 31 | 214 | 1.6 | 6.4 | 0.00 | 0.00 | 0.00 | 69 | 1015.5 |
| 20260902161529 | 31 | 269 | 1.6 | 6.4 | 0.00 | 0.00 | 0.00 | 73 | 1015.5 |
| 20260902161016 | 31 | 277 | 1.6 | 8.0 | 0.00 | 0.00 | 0.00 | 70 | 1015.5 |
| 20260902160503 | 31 | 259 | 1.6 | 8.0 | 0.00 | 0.00 | 0.00 | 70 | 1015.4 |
| 20260902160008 | 31 | 136 | 3.2 | 11.3 | 0.00 | 0.00 | 0.00 | 67 | 1015.3 |
| 20260902155507 | 30 | 259 | 3.2 | 12.9 | 0.00 | 0.00 | 0.00 | 70 | 1015.2 |
| 20260902155005 | 30 | 167 | 4.8 | 12.9 | 0.00 | 0.00 | 0.00 | 71 | 1015.2 |
| 20260902154513 | 30 | 211 | 1.6 | 9.7 | 0.00 | 0.00 | 0.00 | 71 | 1015.2 |
| 20260902154007 | 30 | 181 | 3.2 | 9.7 | 0.00 | 0.00 | 0.00 | 70 | 1015.2 |
| 20260902153510 | 30 | 233 | 1.6 | 6.4 | 0.00 | 0.00 | 0.00 | 73 | 1015.2 |
| 20260902153013 | 30 | 195 | 1.6 | 8.0 | 0.00 | 0.00 | 0.00 | 74 | 1015.2 |
| 20260902152511 | 30 | 252 | 3.2 | 11.3 | 0.00 | 0.00 | 0.00 | 73 | 1015.1 |
| 20260902152013 | 30 | 177 | 3.2 | 11.3 | 0.00 | 0.00 | 0.00 | 75 | 1015.1 |
| 20260902151532 | 30 | 234 | 3.2 | 8.0 | 0.00 | 0.00 | 0.00 | 75 | 1015.1 |
| 20260902151013 | 29 | 164 | 3.2 | 8.0 | 0.00 | 0.00 | 0.00 | 75 | 1015.1 |
| 20260902150518 | 29 | 225 | 1.6 | 4.8 | 0.00 | 0.00 | 0.00 | 75 | 1015.1 |
| 20260902150026 | 30 | 266 | 1.6 | 4.8 | 0.00 | 0.00 | 0.00 | 77 | 1015.1 |
| 20260902145505 | 29 | 240 | 1.6 | 6.4 | 0.00 | 0.00 | 0.00 | 77 | 1015.1 |
| 20260902145008 | 28 | 182 | 3.2 | 9.7 | 0.00 | 0.00 | 0.00 | 74 | 1015.1 |
| 20260902144506 | 29 | 177 | 1.6 | 8.0 | 0.00 | 0.00 | 0.00 | 76 | 1015.1 |
| 20260902144007 | 29 | 225 | 1.6 | 8.0 | 0.00 | 0.00 | 0.00 | 75 | 1015.1 |
| 20260902143510 | 28 | 195 | 1.6 | 8.0 | 0.00 | 0.00 | 0.00 | 75 | 1015.2 |
| 20260902143013 | 28 | 198 | 3.2 | 8.0 | 0.00 | 0.00 | 0.00 | 79 | 1015.2 |
| 20260902142509 | 28 | 178 | 1.6 | 8.0 | 0.00 | 0.00 | 0.00 | 77 | 1015.3 |
| 20260902142012 | 28 | 194 | 1.6 | 8.0 | 0.00 | 0.00 | 0.00 | 79 | 1015.3 |
| 20260902141522 | 28 | 247 | 0.0 | 8.0 | 0.00 | 0.00 | 0.00 | 78 | 1015.3 |
| 20260902141015 | 28 | 186 | 1.6 | 4.8 | 0.00 | 0.00 | 0.00 | 78 | 1015.2 |
| 20260902140514 | 27 | 229 | 1.6 | 6.4 | 0.00 | 0.00 | 0.00 | 78 | 1015.2 |
| 20260902140027 | 27 | 202 | 1.6 | 6.4 | 0.00 | 0.00 | 0.00 | 80 | 1015.2 |
| 20260902135516 | 27 | 193 | 0.0 | 3.2 | 0.00 | 0.00 | 0.00 | 80 | 1015.2 |
| 20260902135005 | 27 | 253 | 1.6 | 3.2 | 0.00 | 0.00 | 0.00 | 82 | 1015.3 |
| 20260902134505 | 27 | 244 | 1.6 | 4.8 | 0.00 | 0.00 | 0.00 | 80 | 1015.2 |
| 20260902134007 | 27 | 235 | 0.0 | 4.8 | 0.00 | 0.00 | 0.00 | 82 | 1015.2 |
| 20260902133507 | 27 | 201 | 1.6 | 11.3 | 0.00 | 0.00 | 0.00 | 82 | 1015.3 |
| 20260902133015 | 26 | 241 | 3.2 | 11.3 | 0.00 | 0.00 | 0.00 | 83 | 1015.2 |
| 20260902132508 | 26 | 265 | 1.6 | 6.4 | 0.00 | 0.00 | 0.00 | 85 | 1015.3 |
| 20260902132009 | 26 | 227 | 1.6 | 9.7 | 0.00 | 0.00 | 0.00 | 85 | 1015.1 |
| 20260902131517 | 25 | 182 | 1.6 | 9.7 | 0.00 | 0.00 | 0.00 | 86 | 1015.2 |
| 20260902131013 | 25 | 192 | 1.6 | 4.8 | 0.00 | 0.00 | 0.00 | 86 | 1015.2 |
| 20260902130513 | 25 | 200 | 1.6 | 4.8 | 0.00 | 0.00 | 0.00 | 87 | 1015.2 |
| 20260902130031 | 25 | 192 | 1.6 | 4.8 | 0.00 | 0.00 | 0.00 | 88 | 1015.1 |
| 20260902125515 | 24 | 227 | 1.6 | 3.2 | 0.00 | 0.00 | 0.00 | 89 | 1015.2 |
| 20260902125017 | 24 | 222 | 1.6 | 3.2 | 0.00 | 0.00 | 0.00 | 89 | 1015.2 |
| 20260902124529 | 23 | 199 | 1.6 | 4.8 | 0.00 | 0.00 | 0.00 | 90 | 1015.2 |
| 20260902124006 | 23 | 217 | 1.6 | 4.8 | 0.00 | 0.00 | 0.00 | 90 | 1015.2 |
| 20260902123508 | 23 | 211 | 1.6 | 6.4 | 0.00 | 0.00 | 0.00 | 90 | 1015.1 |
| 20260902123024 | 23 | 209 | 1.6 | 6.4 | 0.00 | 0.00 | 0.00 | 90 | 1015.0 |
| 20260902122511 | 23 | 229 | 1.6 | 3.2 | 0.00 | 0.00 | 0.00 | 90 | 1015.1 |
| 20260902122009 | 23 | 195 | 1.6 | 3.2 | 0.00 | 0.00 | 0.00 | 90 | 1015.1 |
| 20260902121513 | 23 | 235 | 0.0 | 3.2 | 0.00 | 0.00 | 0.00 | 90 | 1015.1 |
| 20260902121016 | 23 | 263 | 1.6 | 3.2 | 0.00 | 0.00 | 0.00 | 90 | 1015.1 |
| 20260902120511 | 23 | 224 | 0.0 | 3.2 | 0.00 | 0.00 | 0.00 | 90 | 1015.0 |
| 20260902120024 | 23 | 223 | 0.0 | 3.2 | 0.00 | 0.00 | 0.00 | 91 | 1014.9 |
| 20260902115514 | 23 | 230 | 0.0 | 3.2 | 0.00 | 0.00 | 0.00 | 90 | 1014.8 |
| 20260902115016 | 23 | 261 | 0.0 | 3.2 | 0.00 | 0.00 | 0.00 | 91 | 1014.8 |
| 20260902114529 | 23 | 233 | 0.0 | 3.2 | 0.00 | 0.00 | 0.00 | 91 | 1014.6 |
| 20260902114016 | 23 | 179 | 0.0 | 3.2 | 0.00 | 0.00 | 0.00 | 90 | 1014.3 |
| 20260902113517 | 23 | 179 | 0.0 | 3.2 | 0.00 | 0.00 | 0.00 | 91 | 1014.3 |
| 20260902113007 | 23 | 157 | 0.0 | 3.2 | 0.00 | 0.00 | 0.00 | 90 | 1014.2 |
| 20260902112505 | 23 | 140 | 1.6 | 3.2 | 0.00 | 0.00 | 0.00 | 90 | 1014.3 |
| 20260902112009 | 23 | 186 | 0.0 | 3.2 | 0.00 | 0.00 | 0.00 | 90 | 1014.7 |
| 20260902111517 | 23 | 244 | 0.0 | 6.4 | 0.00 | 0.00 | 0.00 | 90 | 1015.0 |
| 20260902111009 | 23 | 250 | 0.0 | 6.4 | 0.00 | 0.00 | 0.00 | 90 | 1015.3 |
| 20260902110512 | 23 | 263 | 3.2 | 6.4 | 0.00 | 0.00 | 0.00 | 90 | 1015.4 |
| 20260902110025 | 23 | 254 | 0.0 | 3.2 | 0.00 | 0.00 | 0.00 | 90 | 1015.3 |
| 20260902105513 | 23 | 224 | 0.0 | 3.2 | 0.00 | 0.00 | 0.00 | 90 | 1015.1 |
| 20260902105019 | 23 | 223 | 0.0 | 3.2 | 0.00 | 0.00 | 0.00 | 90 | 1015.2 |
| 20260902104534 | 23 | 223 | 0.0 | 3.2 | 0.00 | 0.00 | 0.00 | 90 | 1014.9 |
| 20260902104016 | 23 | 220 | 0.0 | 3.2 | 0.00 | 0.00 | 0.00 | 90 | 1014.7 |
| 20260902103515 | 23 | 213 | 0.0 | 3.2 | 0.00 | 0.00 | 0.00 | 90 | 1014.8 |
| 20260902103034 | 23 | 213 | 0.0 | 3.2 | 0.00 | 0.00 | 0.00 | 90 | 1014.8 |
| 20260902102517 | 23 | 213 | 0.0 | 3.2 | 0.00 | 0.00 | 0.00 | 90 | 1014.7 |
| 20260902102006 | 23 | 213 | 0.0 | 3.2 | 0.00 | 0.00 | 0.00 | 90 | 1014.7 |
| 20260902101510 | 22 | 232 | 0.0 | 3.2 | 0.00 | 0.00 | 0.00 | 90 | 1014.6 |
| 20260902101009 | 22 | 206 | 0.0 | 3.2 | 0.00 | 0.00 | 0.00 | 89 | 1014.7 |
| 20260902100513 | 23 | 207 | 0.0 | 3.2 | 0.00 | 0.00 | 0.00 | 89 | 1014.6 |
| 20260902100022 | 23 | 225 | 0.0 | 3.2 | 0.00 | 0.00 | 0.00 | 89 | 1014.5 |
| 20260902095514 | 23 | 225 | 0.0 | 3.2 | 0.00 | 0.00 | 0.00 | 89 | 1014.5 |
| 20260902095016 | 23 | 225 | 0.0 | 3.2 | 0.00 | 0.00 | 0.00 | 89 | 1014.5 |
| 20260902094525 | 23 | 207 | 0.0 | 3.2 | 0.00 | 0.00 | 0.00 | 88 | 1014.5 |
| 20260902094018 | 23 | 211 | 0.0 | 3.2 | 0.00 | 0.00 | 0.00 | 88 | 1014.6 |
| 20260902093504 | 23 | 224 | 0.0 | 3.2 | 0.00 | 0.00 | 0.00 | 88 | 1014.7 |
| 20260902093007 | 23 | 201 | 0.0 | 3.2 | 0.00 | 0.00 | 0.00 | 89 | 1014.8 |
| 20260902092504 | 23 | 209 | 0.0 | 3.2 | 0.00 | 0.00 | 0.00 | 89 | 1014.8 |
| 20260902092004 | 23 | 214 | 0.0 | 3.2 | 0.00 | 0.00 | 0.00 | 88 | 1014.9 |
| 20260902091511 | 23 | 213 | 0.0 | 3.2 | 0.00 | 0.00 | 0.00 | 88 | 1014.9 |
| 20260902091012 | 23 | 192 | 0.0 | 3.2 | 0.00 | 0.00 | 0.00 | 88 | 1014.8 |
| 20260902090518 | 23 | 192 | 0.0 | 3.2 | 0.00 | 0.00 | 0.00 | 88 | 1014.8 |
| 20260902090018 | 23 | 192 | 0.0 | 3.2 | 0.00 | 0.00 | 0.00 | 88 | 1014.9 |
| 20260902085511 | 23 | 194 | 0.0 | 3.2 | 0.00 | 0.00 | 0.00 | 88 | 1014.9 |